Location: ???????
(55.8860°N, 38.0932°E)
Time: 11:01:44
(UTC+00:00)

COSMOS 2428 - Pass Details

Date: 14 April 2024
Orbit: 845 x 855 km, 70.9° (Epoch: 27 May)

Event Time Altitude Azimuth Distance (km) Brightness Sun altitude
Exits shadow 01:22:59 11° 236° (SW) 2,434 4.4 -8.6°
Maximum altitude 01:28:27 54° 313° (NW) 1,029 3.1 -7.9°
Drops below altitude 10° 01:34:02 10° 31° (NNE) 2,484 6.2 -7.3°
Sets 01:36:33 0° 36° (NE) 3,421 7.2 -7.0°
